Temperature
19 18 18 18 18 18 18 18 18 18 17 17 17 17 17 17 17 17 17 17 17 17 17 17 16 16 16 16 16 16 16 16 16 16 16 16 16 16 16 15 15 15 15
20 19 18 18 18 18 18 18 17 17 17 17 17 17 17 17 17 17 17 17 17 17 17 17 16 16 16 16 16 16 16 16 16 16 16 16 16 16 16 15 15 15 15
20 19 18 17 17 18 18 17 17 17 17 17 17 17 17 17 17 17 17 17 17 16 16 16 16 16 16 16 16 16 16 16 16 16 16 16 16 16 15 15 15 15 15
19 18 18 17 17 17 17 17 17 17 16 16 16 16 16 16 16 16 16 17 17 16 16 16 16 16 16 16 16 16 16 16 16 16 16 16 15 15 15 15 15 15 15
19 18 18 17 17 17 17 17 17 17 16 16 16 16 16 16 16 16 16 17 17 16 16 17 17 16 16 16 16 16 16 16 16 16 16 16 15 15 15 15 15 15 15
18 18 18 17 17 17 17 17 16 16 16 16 16 16 16 16 16 16 16 16 17 17 17 17 17 16 16 16 16 16 16 16 16 15 15 15 15 15 15 15 15 15 15
18 18 17 17 17 17 17 16 16 16 16 16 16 16 16 16 16 16 16 16 17 17 17 17 16 16 16 16 16 16 16 16 16 15 15 15 15 15 15 15 15 15 15
18 18 17 17 17 16 16 16 16 16 16 16 16 15 15 16 16 16 16 16 17 17 17 17 16 16 16 16 16 16 16 16 15 15 15 15 15 15 15 15 15 14 14
17 17 17 16 16 16 16 16 16 16 16 16 15 15 15 15 16 16 16 16 17 17 17 17 16 16 16 16 16 15 15 15 15 15 15 15 15 15 15 14 14 14 14
16 16 16 16 16 16 16 16 16 16 15 15 15 15 15 15 16 16 16 16 17 17 17 17 16 16 16 16 16 15 15 15 15 15 15 15 15 15 14 14 14 14 14
16 16 16 16 16 16 15 15 15 15 15 15 15 15 15 15 15 15 16 16 16 17 17 17 16 16 16 16 15 15 15 15 15 15 15 15 14 14 14 14 14 14 14
15 15 15 15 15 15 15 15 15 15 15 15 15 15 15 15 15 15 16 16 16 16 17 16 16 16 16 16 15 15 15 15 15 15 14 14 14 14 14 14 14 14 13
15 15 15 15 15 15 15 15 15 15 15 15 15 15 15 15 15 15 15 16 16 16 16 16 16 16 16 15 15 15 15 15 15 15 14 14 14 14 14 14 14 14 13
14 15 15 15 14 14 14 14 14 14 15 15 15 14 15 15 15 15 15 16 16 16 16 16 16 16 16 15 15 15 15 15 15 14 14 14 14 14 14 14 14 14 13
14 14 14 14 14 14 14 14 14 14 15 15 14 14 14 15 15 15 15 16 16 16 16 16 16 16 15 15 15 15 15 15 14 14 14 14 14 14 14 14 14 14 13
14 14 14 14 14 14 14 14 14 14 14 14 14 14 14 14 15 15 15 16 16 16 16 16 16 16 15 15 15 15 15 14 14 14 14 14 14 14 14 14 14 14 13
13 14 14 14 14 14 14 13 13 14 14 14 14 14 14 14 14 15 15 15 15 16 16 15 15 15 15 15 15 14 14 14 14 14 14 14 14 14 14 13 13 13 13
13 13 13 13 13 13 13 13 13 13 14 14 14 14 14 14 14 14 14 15 15 15 15 15 15 15 15 15 14 14 14 14 14 14 14 14 14 13 13 13 13 13 13
13 13 13 13 13 13 13 13 13 13 13 13 13 13 13 13 14 14 14 14 15 15 15 15 15 15 15 14 14 14 14 14 14 14 14 14 14 13 13 13 13 13 13
12 12 12 13 13 13 13 12 12 12 13 13 13 13 13 13 13 14 14 14 14 14 14 14 14 14 14 14 14 14 14 14 13 13 13 13 13 13 13 13 13 13 12
12 12 12 12 12 12 12 12 12 12 12 12 13 13 13 13 13 13 13 14 14 14 14 14 14 14 14 14 13 13 13 13 13 13 13 13 13 13 13 13 13 12 12
12 12 12 12 12 12 12 12 12 12 12 12 12 12 13 13 13 13 13 13 14 14 14 14 14 14 13 13 13 13 13 13 13 13 13 13 13 13 13 13 12 12 12
11 11 11 12 12 12 12 12 12 12 12 12 12 12 12 12 13 13 13 13 13 13 14 14 14 14 13 13 13 13 13 13 13 13 13 13 12 12 12 12 12 12 11
11 11 11 11 11 11 12 11 11 11 11 12 12 12 12 12 12 12 12 12 13 13 13 14 14 14 14 13 13 13 13 13 13 12 12 12 12 12 12 11 11 11 11
10 10 11 11 11 11 11 11 11 11 11 11 11 11 12 12 12 12 12 12 12 13 13 13 13 13 13 13 13 13 13 13 13 13 12 12 12 12 11 11 11 11 10
10 10 10 10 10 11 11 11 11 11 11 11 11 11 11 11 12 12 12 12 12 12 13 13 13 13 13 13 13 13 13 12 12 13 13 12 12 11 11 11 10 10 10
Wind_Speed
8 13 22 21 21 20 19 19 18 18 18 18 18 18 18 19 19 19 19 19 18 18 18 18 18 19 19 19 19 19 19 18 18 17 17 17 17 17 17 16 16 15 17
13 18 22 21 21 20 19 19 18 18 18 18 18 18 18 19 19 19 19 19 18 19 19 19 19 18 18 19 19 18 18 18 17 17 17 17 17 17 16 16 15 14 16
16 18 21 21 20 19 19 18 18 18 18 18 18 18 19 19 19 19 19 19 19 19 19 19 18 18 18 17 17 17 16 15 15 15 14 13 15 16 15 15 15 15 15
16 17 19 20 19 19 18 18 18 18 18 18 18 19 19 20 20 20 19 19 19 19 19 18 18 17 17 16 15 14 13 12 12 12 12 11 12 14 14 15 15 15 15
14 16 18 21 19 18 18 17 18 18 18 18 18 19 20 20 20 20 20 19 19 19 19 18 17 16 15 14 13 12 12 12 13 13 12 12 11 13 13 13 13 13 13
12 14 19 21 20 19 18 17 18 18 18 18 18 19 20 20 20 21 20 20 20 19 18 18 16 15 13 12 12 11 12 13 14 14 12 11 10 12 12 12 12 12 12
12 12 17 21 20 19 18 17 17 18 18 19 19 19 20 20 21 21 21 21 20 19 18 17 16 14 12 11 10 10 11 13 14 12 10 9 10 11 11 11 11 11 11
11 11 15 19 19 19 18 18 17 17 18 19 19 19 20 21 22 22 22 21 20 19 18 17 16 14 12 10 9 9 11 12 12 11 10 9 10 10 9 9 9 9 9
7 8 9 14 16 17 17 17 17 17 18 18 19 20 20 20 22 22 22 21 20 19 18 17 15 14 12 9 8 8 9 10 11 10 8 8 9 8 8 7 7 7 7
5 6 6 10 12 12 14 16 17 17 17 17 18 19 19 21 22 22 22 21 20 19 18 17 15 14 11 9 7 6 8 9 9 8 8 8 8 7 7 6 5 5 5
4 5 6 6 8 10 11 13 15 16 17 17 17 19 19 17 18 19 20 21 20 19 18 17 15 13 11 8 6 5 5 6 7 8 9 9 8 7 6 5 3 3 2
5 5 5 6 6 7 9 9 10 11 13 13 14 16 15 15 16 17 20 21 20 19 18 16 15 13 10 7 5 4 4 5 7 8 9 10 8 7 5 4 3 2 1
5 5 5 5 5 6 5 6 5 7 9 11 14 14 14 14 13 14 15 16 16 16 14 14 12 10 9 7 5 5 5 5 7 8 10 11 9 7 5 4 3 2 2
5 6 6 6 5 5 6 6 6 5 6 7 12 15 13 9 8 10 10 12 13 12 11 10 9 9 8 8 7 6 6 6 7 9 10 11 10 7 5 4 3 3 3
6 6 7 8 8 7 7 6 7 7 7 9 12 15 15 9 9 8 9 11 11 12 11 9 8 7 6 7 7 7 6 7 8 10 9 11 10 8 6 4 2 3 3
7 7 7 8 8 8 8 7 7 7 8 10 11 14 16 13 10 9 9 9 10 12 12 10 8 6 5 5 5 6 7 7 8 9 9 10 10 8 6 4 2 2 2
7 7 7 8 8 8 8 9 7 7 8 8 10 15 16 15 13 10 10 9 10 13 12 9 7 6 4 4 5 5 5 6 7 8 9 9 8 7 6 4 2 1 1
7 7 8 7 9 9 8 8 6 7 8 7 10 13 16 17 17 11 9 10 12 12 9 7 6 5 5 5 4 3 3 5 6 7 8 8 8 7 6 4 2 1 0
7 7 7 8 8 8 8 7 7 7 7 7 9 10 14 17 18 12 9 9 12 9 7 8 6 5 5 5 4 3 3 3 4 6 6 7 8 8 6 5 4 2 1
6 6 6 6 7 8 6 5 5 6 6 6 7 9 12 14 16 13 9 10 10 8 8 8 7 5 5 5 4 3 2 2 3 4 4 6 7 8 7 6 5 4 3
5 6 6 6 6 6 5 6 6 7 6 6 6 8 11 11 13 10 9 10 10 10 10 9 6 6 4 4 4 2 1 0 2 3 3 4 4 7 8 8 7 6 5
6 6 6 7 6 6 6 5 4 4 5 5 6 8 10 11 11 10 10 10 10 9 9 9 6 5 4 5 4 3 1 1 1 1 2 4 4 5 6 7 8 7 7
5 5 5 6 6 7 7 5 4 3 3 5 6 7 9 10 10 9 9 9 9 9 10 10 9 9 6 5 4 5 4 5 2 1 2 3 4 4 3 6 8 8 8
3 3 3 4 4 5 7 7 7 6 6 6 7 7 8 9 10 9 9 9 9 8 9 10 9 7 8 7 4 3 3 4 4 2 1 1 3 4 4 4 6 8 9
0 1 1 2 2 3 4 6 6 5 5 4 4 7 8 8 9 9 9 9 9 8 9 10 9 8 7 7 6 4 3 2 2 4 3 2 1 2 3 4 5 7 9
3 3 2 2 2 2 3 3 4 5 4 5 6 7 7 6 6 9 9 9 9 8 9 9 10 10 8 8 6 5 5 4 4 4 4 3 3 2 2 2 4 6 8
Wind_Direction
170 168 171 166 162 158 156 154 152 150 149 146 143 140 137 135 133 132 130 130 130 129 126 123 118 114 111 109 106 104 100 96 91 87 84 85 87 86 82 77 74 72 73
158 166 170 168 164 161 158 157 157 155 154 152 150 147 145 142 140 138 136 134 133 131 128 125 121 118 114 112 110 108 104 99 94 89 83 83 85 85 83 80 79 76 73
153 163 168 168 165 163 161 160 160 160 160 159 157 155 152 149 146 144 141 139 137 133 129 125 122 120 118 117 115 111 107 103 100 94 87 84 86 86 83 80 78 75 73
154 161 166 167 166 165 164 164 163 164 166 165 164 161 158 154 152 149 146 143 140 135 131 127 124 123 122 121 119 113 106 105 108 99 89 84 86 88 85 81 78 76 74
154 159 164 167 168 167 166 167 168 169 170 170 168 166 163 161 157 154 150 146 141 135 132 130 128 128 127 124 120 111 106 106 109 105 99 92 90 91 87 83 80 78 75
153 158 165 167 169 169 169 170 172 172 174 174 172 170 168 166 161 155 151 145 141 137 136 135 134 133 131 126 119 109 105 112 114 112 106 100 96 95 91 87 83 81 77
155 158 166 170 171 171 172 173 175 176 177 178 176 175 172 167 162 155 150 146 144 143 142 140 140 139 136 129 119 107 107 118 123 121 115 109 105 101 96 92 87 84 79
158 159 166 173 173 174 175 175 177 180 181 180 179 176 173 168 161 156 152 150 149 148 147 145 146 146 142 136 123 110 106 118 125 128 125 122 116 107 102 97 91 86 81
152 158 164 171 174 175 177 179 181 182 183 182 180 176 172 167 161 158 155 154 153 153 151 151 152 152 150 144 132 119 112 119 130 137 137 135 129 119 112 108 100 92 85
146 160 170 171 172 175 179 182 181 182 182 180 179 174 169 165 162 160 157 157 156 156 156 156 157 158 157 154 146 130 117 122 136 150 151 151 144 133 126 120 115 104 97
154 166 172 174 171 171 176 183 180 180 179 176 175 170 165 163 160 160 159 158 158 159 159 161 162 162 162 164 163 149 130 130 144 156 163 165 159 150 145 140 137 128 115
177 181 172 173 175 167 176 174 173 174 172 169 167 165 162 159 161 161 160 159 160 161 162 165 166 165 165 172 178 170 154 146 156 167 176 177 172 167 165 165 164 160 161
193 180 172 170 173 170 167 164 166 167 164 163 164 163 160 156 159 158 160 161 161 162 162 166 166 168 174 183 193 195 189 178 178 184 187 185 181 177 178 182 190 206 233
208 191 178 174 174 181 177 175 173 174 169 166 169 167 163 161 160 163 165 166 166 168 166 168 170 177 186 198 203 203 201 192 188 190 191 190 186 184 186 193 212 232 242
223 204 191 184 179 183 183 185 182 185 179 173 173 175 173 169 169 169 171 172 173 173 174 175 179 184 195 206 210 207 206 200 189 186 188 191 191 191 190 197 222 249 246
224 210 195 191 186 188 190 191 190 188 182 178 181 183 179 177 175 174 175 177 180 183 183 183 186 186 194 198 206 205 203 197 185 181 184 190 195 196 195 195 212 254 253
223 211 199 197 190 192 194 196 195 192 183 184 188 188 185 181 180 178 179 183 187 188 186 183 188 186 190 196 203 198 188 185 176 178 182 186 191 197 198 195 200 246 268
213 205 203 200 192 193 193 193 195 197 189 189 190 189 188 185 183 181 183 187 187 186 184 182 183 183 189 188 189 186 170 165 167 173 175 180 181 181 187 188 191 204 234
203 197 198 195 188 191 197 196 193 199 195 190 189 186 189 188 186 183 185 187 183 185 187 188 184 178 179 181 177 170 167 165 163 160 161 172 174 172 169 161 151 129 125
197 188 186 192 190 185 188 193 196 197 197 194 190 190 185 188 187 184 183 184 179 183 188 187 179 177 172 167 157 148 160 173 166 165 164 164 167 168 164 153 140 117 98
195 188 191 194 192 179 176 189 197 197 194 197 199 192 187 187 187 185 185 182 181 186 190 185 174 173 171 150 126 110 18 33 172 179 164 157 156 161 157 152 142 129 103
193 191 196 198 193 186 183 185 195 187 184 196 202 197 194 190 188 189 188 186 186 185 184 182 170 168 171 165 149 138 170 301 272 199 177 169 162 144 140 145 142 134 120
199 198 208 198 197 191 184 174 176 176 174 194 203 201 196 192 190 189 192 189 189 189 191 188 184 177 179 187 175 160 167 204 208 224 204 176 161 147 138 137 138 137 128
226 200 200 197 200 191 182 180 180 186 195 204 203 202 196 190 189 191 196 195 192 194 196 194 191 185 175 187 190 190 175 156 163 181 227 174 159 158 158 143 135 134 131
128 126 148 160 168 171 180 184 177 187 200 197 194 200 200 194 191 193 199 201 202 202 200 198 195 191 186 187 181 171 167 152 157 160 188 191 169 179 166 152 143 139 137
30 46 69 112 113 130 160 175 181 183 187 190 191 203 201 196 194 194 195 200 203 204 205 204 201 199 197 190 185 177 172 171 184 171 178 182 186 191 161 154 152 148 146
Height
1491 1494 1496 1499 1502 1505 1507 1509 1510 1512 1515 1517 1519 1522 1524 1526 1528 1529 1530 1532 1533 1534 1535 1536 1537 1538 1539 1540 1541 1541 1542 1542 1543 1543 1544 1544 1544 1544 1544 1544 1544 1544 1544
1490 1493 1496 1499 1502 1504 1506 1508 1510 1512 1514 1517 1519 1521 1524 1526 1528 1529 1531 1532 1533 1535 1536 1537 1538 1540 1541 1542 1542 1543 1544 1544 1545 1545 1546 1546 1546 1546 1546 1546 1546 1546 1545
1490 1493 1495 1499 1501 1504 1506 1508 1510 1512 1514 1517 1519 1521 1523 1526 1528 1529 1531 1532 1534 1536 1537 1538 1539 1541 1542 1543 1544 1545 1545 1546 1547 1547 1548 1548 1548 1548 1548 1548 1548 1547 1547
1490 1493 1495 1498 1501 1503 1506 1507 1509 1512 1514 1516 1519 1521 1523 1525 1527 1529 1531 1533 1534 1536 1538 1539 1541 1542 1543 1545 1545 1546 1547 1548 1548 1549 1549 1550 1550 1550 1549 1549 1549 1549 1549
1490 1493 1495 1498 1501 1503 1505 1507 1509 1511 1513 1516 1518 1521 1523 1525 1527 1529 1531 1533 1535 1537 1538 1540 1542 1543 1545 1546 1547 1548 1548 1549 1550 1551 1551 1551 1551 1551 1551 1551 1551 1550 1550
1490 1492 1495 1498 1500 1503 1505 1507 1508 1510 1513 1515 1518 1520 1523 1525 1527 1529 1531 1533 1535 1537 1539 1541 1543 1544 1546 1547 1548 1549 1550 1551 1551 1552 1552 1552 1552 1553 1552 1552 1552 1551 1551
1490 1492 1494 1497 1499 1501 1504 1506 1507 1510 1512 1514 1517 1519 1522 1524 1526 1528 1531 1533 1535 1537 1539 1542 1544 1545 1547 1548 1549 1550 1551 1552 1552 1553 1553 1553 1554 1554 1553 1553 1553 1552 1552
1490 1491 1493 1496 1498 1501 1502 1505 1507 1509 1511 1513 1516 1519 1521 1523 1526 1528 1530 1533 1535 1537 1540 1542 1544 1546 1548 1549 1550 1551 1552 1552 1553 1554 1554 1554 1554 1554 1554 1554 1553 1553 1553
1490 1491 1493 1495 1497 1499 1501 1504 1506 1508 1510 1512 1515 1518 1520 1523 1525 1527 1530 1532 1535 1537 1540 1542 1544 1546 1548 1550 1551 1552 1552 1553 1554 1554 1555 1555 1555 1555 1555 1554 1554 1554 1553
1489 1490 1492 1494 1496 1498 1500 1502 1504 1507 1509 1511 1514 1516 1519 1522 1524 1527 1529 1532 1535 1537 1540 1542 1544 1547 1548 1550 1551 1552 1553 1553 1554 1555 1555 1555 1555 1555 1555 1555 1554 1554 1553
1488 1489 1491 1492 1494 1496 1498 1500 1503 1505 1507 1510 1513 1515 1518 1521 1523 1526 1528 1531 1534 1537 1539 1542 1544 1546 1548 1550 1551 1552 1553 1554 1554 1555 1555 1555 1555 1555 1555 1555 1554 1554 1553
1485 1487 1488 1490 1492 1494 1496 1498 1500 1503 1505 1507 1510 1513 1516 1519 1522 1525 1527 1530 1533 1536 1539 1541 1543 1546 1548 1549 1550 1552 1553 1553 1554 1554 1555 1555 1555 1555 1555 1554 1554 1553 1553
1482 1484 1486 1488 1489 1491 1493 1495 1498 1500 1503 1505 1508 1511 1514 1517 1520 1523 1526 1529 1532 1534 1537 1540 1542 1544 1546 1548 1550 1551 1552 1553 1553 1554 1554 1554 1554 1554 1554 1554 1553 1553 1552
1480 1481 1482 1484 1486 1488 1490 1492 1495 1497 1500 1502 1505 1508 1511 1514 1517 1520 1523 1526 1529 1532 1535 1538 1541 1543 1545 1547 1549 1550 1551 1552 1552 1553 1553 1553 1553 1553 1553 1553 1552 1552 1551
1476 1477 1479 1481 1482 1484 1486 1489 1491 1494 1496 1499 1502 1505 1508 1511 1514 1518 1521 1524 1527 1531 1533 1536 1539 1541 1543 1545 1547 1548 1549 1550 1551 1551 1552 1552 1552 1552 1552 1551 1551 1550 1550
1472 1473 1475 1477 1479 1480 1482 1484 1487 1490 1492 1495 1498 1502 1505 1508 1512 1515 1518 1521 1525 1528 1531 1534 1537 1539 1542 1544 1545 1546 1548 1549 1549 1550 1550 1551 1551 1551 1550 1550 1549 1549 1549
1468 1469 1471 1473 1474 1476 1478 1480 1483 1486 1488 1491 1494 1498 1501 1505 1508 1512 1516 1519 1522 1526 1529 1532 1535 1537 1539 1541 1543 1544 1546 1547 1547 1548 1548 1549 1549 1549 1549 1548 1548 1547 1547
1463 1465 1467 1468 1470 1472 1474 1476 1479 1482 1484 1487 1491 1494 1498 1501 1505 1509 1512 1516 1519 1523 1526 1529 1531 1534 1536 1538 1540 1542 1543 1544 1545 1546 1546 1547 1547 1547 1547 1546 1546 1546 1545
1459 1461 1462 1464 1465 1467 1469 1472 1474 1478 1480 1484 1487 1490 1493 1498 1501 1505 1509 1512 1516 1519 1522 1525 1528 1531 1533 1535 1538 1540 1541 1542 1543 1544 1544 1544 1545 1545 1545 1544 1544 1544 1544
1454 1456 1457 1459 1461 1463 1466 1468 1471 1474 1476 1479 1483 1486 1489 1494 1497 1501 1505 1509 1512 1515 1519 1522 1525 1528 1530 1533 1535 1537 1538 1539 1540 1541 1541 1542 1542 1542 1542 1542 1542 1542 1542
1450 1451 1453 1455 1457 1459 1462 1464 1466 1469 1471 1475 1478 1481 1485 1489 1493 1496 1500 1504 1508 1511 1514 1518 1521 1524 1527 1530 1532 1534 1535 1536 1537 1538 1538 1538 1539 1539 1539 1539 1540 1539 1539
1445 1447 1450 1451 1453 1455 1457 1460 1462 1465 1467 1471 1474 1478 1481 1484 1488 1491 1495 1499 1503 1506 1510 1513 1516 1519 1522 1525 1527 1529 1531 1533 1532 1533 1534 1535 1536 1536 1536 1537 1537 1537 1537
1442 1444 1446 1447 1449 1451 1453 1456 1459 1460 1463 1467 1470 1473 1476 1479 1483 1486 1490 1494 1498 1501 1504 1507 1511 1514 1516 1520 1522 1524 1525 1526 1528 1529 1530 1531 1532 1532 1533 1534 1534 1534 1534
1438 1440 1442 1444 1446 1448 1450 1452 1454 1456 1459 1462 1465 1468 1471 1474 1478 1481 1486 1489 1493 1496 1499 1502 1506 1509 1511 1514 1516 1518 1520 1521 1523 1524 1526 1526 1528 1528 1529 1530 1530 1531 1530
1435 1437 1438 1441 1443 1445 1447 1449 1451 1453 1456 1459 1461 1463 1466 1469 1473 1477 1481 1484 1488 1491 1494 1497 1500 1503 1505 1508 1510 1512 1514 1516 1517 1518 1520 1521 1523 1524 1525 1526 1526 1527 1527
1434 1435 1437 1439 1441 1442 1444 1446 1448 1449 1452 1455 1457 1459 1461 1465 1468 1472 1475 1479 1482 1485 1488 1491 1494 1497 1499 1502 1504 1506 1508 1510 1511 1513 1514 1516 1518 1520 1521 1521 1522 1523 1523